Regional Weather Roundup
Issued by NWS Albany, NY

Home | Current Version | Previous Version | Text Only | Print | Product List | Glossary On
Versions: 1 2 3 4 5 6 7 8 9 10 11 12 13 14 15 16 17 18 19 20 21 22 23 24 25 26 27 28 29 30 31 32 33 34 35 36 37 38 39 40 41 42 43 44 45 46 47 48 49 50
000
ASUS41 KALY 030310
RWRALY

NEW YORK STATE HOURLY WEATHER ROUNDUP
NATIONAL WEATHER SERVICE ALBANY NY
1100 PM EDT SUN AUG 02 2015

NOTE: "FAIR" INDICATES FEW OR NO CLOUDS BELOW 12,000 FEET WITH NO
SIGNIFICANT WEATHER AND/OR NO OBSTRUCTIONS TO VISIBILITY.

NYZ032-033-038>043-046>054-057>066-NYZ062>081-030400-
EAST


CITY           SKY/WX    TMP DP  RH WIND       PRES   REMARKS
ALBANY         MOCLDY    75  57  53 S6        29.82S
GLENS FALLS    MOCLDY    71  60  68 S7        29.80S
POUGHKEEPSIE   CLEAR     68  59  73 CALM      29.84F
NEWBURGH       CLEAR     75  57  53 W5        29.87F
MONTGOMERY     CLEAR     66  59  78 CALM      29.86F
WHITE PLAINS   CLEAR     70  64  81 CALM      29.87F
ISLIP          PTCLDY    76  69  79 S8        29.86F
NEW YORK CITY  PTCLDY    80  63  55 S6        29.86F
CENTRAL PARK   CLEAR     78  61  55 CALM      29.89F
$$

NYZ005>009-017-018-044>046-055-056-030400-
CENTRAL


CITY           SKY/WX    TMP DP  RH WIND       PRES   REMARKS
FULTON         MOCLDY    72  58  61 SE5       29.72F
SYRACUSE       MOCLDY    77  59  53 S12       29.74F
ROME           PTCLDY    71  58  63 SE7       29.79F
ELMIRA         PTCLDY    74  61  63 W6        29.80F
BINGHAMTON     CLEAR     69  59  70 SW5       29.87F
MONTICELLO     CLEAR     66  57  72 SW3       29.91S
$$

NYZ026>034-041>043-030400-
NORTH


CITY           SKY/WX    TMP DP  RH WIND       PRES   REMARKS
WATERTOWN      MOCLDY    71  56  58 S8        29.68F
FORT DRUM      NOT AVBL
MASSENA        MOCLDY    72  56  57 S8        29.67S
SARANAC LAKE   PTCLDY    65  54  67 S8        29.77F
PLATTSBURGH    MOCLDY    69  59  70 S7        29.72F
$$

NYZ001>004-010>016-019>021-030400-
WEST


CITY           SKY/WX    TMP DP  RH WIND       PRES   REMARKS
NIAGARA FALLS  CLOUDY    78  62  57 S18G28    29.64F
BUFFALO        CLOUDY    80  61  52 SW21G32   29.67F
DUNKIRK        CLOUDY    79  62  56 S22G35    29.69F
JAMESTOWN      MOCLDY    73  61  64 S14G21    29.80F
WELLSVILLE     MOCLDY    73  58  59 SW14G23   29.86F
ROCHESTER      MOCLDY    72  58  61 S8        29.69F
PENN YAN       PTCLDY    75  59  57 S9        29.77F
$$

             KEY
       WCI = WIND CHILL INDEX
       VSB = VISIBILITY
       HX  = HEAT INDEX
$$


USA.gov is the U.S. government's official web portal to all federal, state and local government web resources and services.